Location: Newark
(50.5333°N, 4.4333°E)
Time: 04:18:28
(UTC+00:00)

Envisat - Visible Passes

Search period start: 16 October 2019 00:00
Search period end: 26 October 2019 00:00
Orbit: 764 x 766 km, 98.1° (Epoch: 15 October)

Date Brightness Start Highest point End Pass type
(mag) Time Alt. Az. Time Alt. Az. Time Alt. Az.
16 Oct 6.2 05:23:39 10° NE 05:26:48 16° E 05:29:56 10° SE visible
16 Oct 4.5 18:21:13 10° SSW 18:25:57 39° W 18:30:44 10° NNW visible
17 Oct 3.2 17:43:58 10° S 17:49:02 78° WSW 17:54:10 10° NNW visible
17 Oct 6.1 19:26:54 10° WSW 19:28:56 12° W 19:30:59 10° WNW visible
18 Oct 5.3 18:47:33 10° SW 18:51:41 25° W 18:55:49 10° NW visible
19 Oct 6.4 05:13:01 10° ENE 05:15:22 13° E 05:17:43 10° ESE visible
19 Oct 4.1 18:09:44 10° S 18:14:38 48° W 18:19:34 10° NNW visible
20 Oct 3.0 17:32:41 10° SSE 17:37:47 86° ENE 17:42:54 10° NNW visible
20 Oct 6.0 19:14:34 10° WSW 19:17:30 15° W 19:20:26 10° NW visible
21 Oct 6.0 05:37:22 10° NE 05:41:14 21° E 05:45:05 10° SE visible
21 Oct 5.0 18:35:53 10° SSW 18:40:18 30° W 18:44:46 10° NNW visible
22 Oct 6.7 05:03:07 10° ENE 05:03:56 10° E 05:04:44 10° E visible
22 Oct 3.6 17:58:18 10° S 18:03:19 59° W 18:08:22 10° NNW visible
23 Oct 3.0 17:21:28 10° SSE 17:26:31 71° ENE 17:31:36 10° N visible
23 Oct 5.7 19:02:34 10° SW 19:06:05 19° W 19:09:38 10° NW visible
24 Oct 6.1 05:26:28 10° NE 05:29:51 18° E 05:33:12 10° SE visible
24 Oct 4.6 18:24:17 10° SSW 18:28:57 36° W 18:33:40 10° NNW visible
25 Oct 3.3 17:46:57 10° S 17:52:01 73° WSW 17:57:08 10° NNW visible
25 Oct 6.2 19:30:28 10° W 19:31:59 11° W 19:33:29 10° WNW visible
